Location: *
(18.5200°S, 46.4500°E)
Time: 11:19:44
(UTC+00:00)

Cosmos 2016 Rocket - Pass Details

Date: 19 July 2019
Orbit: 947 x 1000 km, 83.0° (Epoch: 20 August)

Event Time Altitude Azimuth Distance (km) Brightness Sun altitude
Rises 15:18:53 0° 180° (S) 3,648 6.8 -10.6°
Reaches altitude 10° 15:21:24 10° 177° (S) 2,703 6.1 -11.2°
Maximum altitude 15:27:33 67° 95° (E) 1,043 3.9 -12.5°
Drops below altitude 10° 15:33:43 10° 12° (NNE) 2,713 6.4 -13.9°
Sets 15:36:14 0° 10° (N) 3,663 7.1 -14.5°
